EW7603 Weather Reports


Display with metric or nautical units.
time (UTC)temp
F
wind
direction
speed
MPH
gust
MPH
rain 1hr
in
rain 24hr
in
rain mn
in
humidity
%
barometer
mb
20260510094539 34 318 0.0 0.0 0.00 0.00 0.00 82 1012.7
20260510093036 35 318 0.0 0.0 0.00 0.00 0.00 81 1012.4
20260510091548 35 318 0.0 0.0 0.00 0.00 0.00 80 1012.2
20260510090030 36 318 0.0 0.0 0.00 0.00 0.00 79 1011.9
20260510084528 37 318 0.0 0.0 0.00 0.00 0.00 77 1011.6
20260510083026 37 318 0.0 0.0 0.00 0.00 0.00 74 1011.5
20260510081534 38 318 0.0 0.0 0.00 0.00 0.00 73 1011.2
20260510080020 39 318 0.0 0.0 0.00 0.00 0.00 72 1010.9
20260510074518 40 318 1.0 0.0 0.00 0.00 0.00 68 1010.8
20260510073022 41 318 1.0 0.0 0.00 0.00 0.00 66 1010.7
20260510071515 42 319 2.0 0.0 0.00 0.00 0.00 64 1010.5
20260510070016 42 317 4.0 0.0 0.00 0.00 0.00 63 1010.3
20260510064534 43 311 5.0 0.0 0.00 0.00 0.00 62 1010.2
20260510063014 43 323 4.0 0.0 0.00 0.00 0.00 62 1010.2
20260510061505 44 355 4.0 0.0 0.00 0.00 0.00 63 1010.2
20260510060000 44 350 5.0 0.0 0.00 0.00 0.00 62 1010.1
20260510054603 45 329 6.0 0.0 0.00 0.00 0.00 62 1010.1
20260510053057 45 350 4.0 0.0 0.00 0.00 0.00 64 1009.7
20260510051605 46 299 2.0 0.0 0.00 0.00 0.00 65 1009.6
20260510050052 46 319 2.0 0.0 0.00 0.00 0.00 63 1009.2
20260510044559 47 320 3.0 0.0 0.00 0.00 0.00 62 1008.8
20260510043049 47 318 2.0 0.0 0.00 0.00 0.00 62 1008.7
20260510041559 48 345 2.0 0.0 0.00 0.00 0.00 60 1008.1
20260510040044 48 350 3.0 0.0 0.00 0.00 0.11 60 1008.2
20260510034546 49 319 4.0 0.0 0.00 0.00 0.11 59 1007.9
20260510033047 49 311 4.0 0.0 0.00 0.00 0.11 59 1008.0
20260510031548 50 291 3.0 0.0 0.00 0.00 0.11 64 1007.7
20260510030052 51 345 3.0 0.0 0.00 0.00 0.11 61 1006.8
20260510024548 52 294 3.0 0.0 0.00 0.00 0.11 60 1007.0
20260510023041 52 319 4.0 0.0 0.00 0.00 0.11 61 1006.9
20260510021539 53 345 4.0 0.0 0.00 0.00 0.11 63 1006.2
20260510020039 53 302 3.0 0.0 0.00 0.00 0.11 64 1005.8
20260510014531 54 323 3.0 0.0 0.00 0.00 0.11 64 1005.6
20260510013029 54 333 5.0 0.0 0.00 0.00 0.11 66 1005.1
20260510011529 54 282 2.0 0.0 0.00 0.00 0.11 78 1004.9
20260510010029 55 229 1.0 0.0 0.00 0.00 0.11 80 1004.6
20260510004530 56 229 1.0 0.0 0.00 0.00 0.11 79 1004.2
20260510003043 56 256 2.0 0.0 0.00 0.00 0.11 78 1004.0
20260510001528 57 312 2.0 0.0 0.00 0.00 0.11 76 1003.5
20260510000030 57 276 1.0 0.0 0.00 0.00 0.11 75 1003.3
20260509234536 58 170 3.0 0.0 0.00 0.00 0.11 74 1003.0
20260509233039 58 190 5.0 0.0 0.00 0.00 0.11 72 1003.0
20260509231529 58 197 4.0 0.0 0.00 0.00 0.11 73 1002.7
20260509230025 58 148 4.0 0.0 0.00 0.00 0.11 72 1002.5
20260509224526 58 207 4.0 0.0 0.00 0.00 0.11 74 1002.3
20260509223025 57 204 6.0 0.0 0.00 0.00 0.11 75 1002.0
20260509221523 56 201 5.0 0.0 0.00 0.00 0.11 78 1002.0
20260509220028 55 147 5.0 0.0 0.00 0.00 0.11 81 1002.4
20260509214521 54 189 5.0 0.0 0.00 0.00 0.11 82 1002.5
20260509213021 54 132 5.0 0.0 0.00 0.00 0.11 85 1002.5
20260509211520 53 168 6.0 0.0 0.00 0.00 0.11 87 1002.6
20260509210024 52 226 6.0 0.0 0.00 0.00 0.11 88 1002.7
20260509204519 51 224 6.0 0.0 0.00 0.00 0.11 85 1003.0
20260509203027 54 225 9.0 0.0 0.00 0.00 0.10 76 1002.4
20260509201518 60 200 13.0 0.0 0.00 0.00 0.00 69 1001.5
20260509200017 59 134 11.0 0.0 0.00 0.00 0.00 68 1001.7
20260509194518 59 208 15.0 0.0 0.00 0.00 0.00 68 1001.7
20260509193017 60 170 14.0 0.0 0.00 0.00 0.00 66 1001.8
20260509191516 61 185 13.0 0.0 0.00 0.00 0.00 65 1002.0
20260509190018 61 168 10.0 0.0 0.00 0.00 0.00 66 1001.9
20260509184526 61 164 12.0 0.0 0.00 0.00 0.00 66 1002.3
20260509183024 60 118 10.0 0.0 0.00 0.00 0.00 69 1002.5
20260509181517 59 207 10.0 0.0 0.00 0.00 0.00 72 1003.2
20260509180018 60 209 11.0 0.0 0.00 0.00 0.00 70 1002.7
20260509174516 62 161 11.0 0.0 0.00 0.00 0.00 66 1002.3
20260509173016 63 129 12.0 0.0 0.00 0.00 0.00 65 1002.5
20260509171520 63 176 11.0 0.0 0.00 0.00 0.00 65 1002.8
20260509170012 64 165 9.0 0.0 0.00 0.00 0.00 65 1003.3
20260509164508 62 143 9.0 0.0 0.00 0.00 0.00 65 1003.5
20260509163011 63 116 9.0 0.0 0.00 0.00 0.00 64 1003.5
20260509161510 62 164 8.0 0.0 0.00 0.00 0.00 66 1004.4
20260509160006 62 183 7.0 0.0 0.00 0.00 0.00 65 1004.5
20260509154505 62 176 6.0 0.0 0.00 0.00 0.00 63 1004.4
20260509153013 63 203 7.0 0.0 0.00 0.00 0.00 62 1004.3
20260509151615 62 155 7.0 0.0 0.00 0.00 0.00 65 1004.3
20260509150111 61 186 8.0 0.0 0.00 0.00 0.00 68 1004.5
20260509144602 61 172 8.0 0.0 0.00 0.00 0.00 67 1004.5
20260509143104 59 183 7.0 0.0 0.00 0.00 0.00 70 1004.3
20260509141554 59 164 7.0 0.0 0.00 0.00 0.00 71 1004.6
20260509140055 56 190 5.0 0.0 0.00 0.00 0.00 78 1004.7
20260509134545 54 186 6.0 0.0 0.00 0.00 0.00 83 1005.1
20260509133047 52 178 7.0 0.0 0.00 0.00 0.00 86 1005.2
20260509131539 52 168 5.0 0.0 0.00 0.00 0.00 88 1005.3
20260509130038 51 174 5.0 0.0 0.00 0.00 0.00 90 1005.4
20260509124545 50 133 5.0 0.0 0.00 0.00 0.00 91 1005.6
20260509123039 50 176 7.0 0.0 0.00 0.00 0.00 92 1005.6
20260509121549 49 147 5.0 0.0 0.00 0.00 0.00 92 1005.7
20260509120033 50 179 4.0 0.0 0.00 0.00 0.00 92 1005.7
20260509114549 50 165 5.0 0.0 0.00 0.00 0.00 92 1005.8
20260509113031 50 172 4.0 0.0 0.00 0.00 0.00 91 1005.5
20260509111528 50 188 5.0 0.0 0.00 0.00 0.00 90 1005.2
20260509110021 50 197 3.0 0.0 0.00 0.00 0.00 90 1005.2
20260509104522 50 160 3.0 0.0 0.00 0.00 0.00 90 1005.2
20260509103018 50 137 3.0 0.0 0.00 0.00 0.00 89 1005.5
20260509101517 50 199 2.0 0.0 0.00 0.00 0.00 89 1005.6
20260509100017 50 159 5.0 0.0 0.00 0.00 0.00 89 1005.6